Location: Chervonnoye
(48.6000°N, 34.4000°E)
Time: 20:11:44
(UTC+00:00)

Daily predictions for brighter satellites

Satellite Brightness Start Highest point End
(mag) Time Altitude Azimuth Time Altitude Azimuth Time Altitude Azimuth
Cosmos 2360 Rocket 2.8 14:16:53 10° SW 14:22:26 59° WNW 14:28:01 10° NNE
Cosmos-2242 4.1 14:19:34 10° SSW 14:23:47 48° WNW 14:28:04 10° N
Cosmos 1125 Rocket 4.1 14:22:56 10° N 14:27:40 34° ENE 14:32:24 10° ESE
Cosmos 2208 Rocket 4.3 14:23:05 10° S 14:28:10 52° ESE 14:33:21 10° NNE
Cosmos 921 Rocket 4.3 14:24:57 10° SW 14:29:14 44° WNW 14:33:36 10° N
Cosmos 2219 Rocket 2.3 14:25:46 10° SSW 14:31:23 70° ESE 14:37:01 10° NNE
Cosmos 1633 3.9 14:31:04 10° NNW 14:34:29 44° W 14:37:54 10° SSW
CZ-4B R/B 3.2 14:29:31 10° SE 14:34:44 55° ENE 14:39:55 10° N
Cosmos 1980 Rocket 4.4 14:34:08 10° NW 14:36:31 13° NNW 14:38:55 10° N
SL-16 R/B 3.9 14:32:00 10° WSW 14:36:45 27° NW 14:41:31 10° NNE
Cosmos 2221 2.6 14:34:35 10° S 14:38:52 58° E 14:43:07 10° NNE
Cosmos 1500 Rocket 3.7 14:34:37 10° N 14:38:56 55° ENE 14:43:15 10° SSE
SL-24 R/B - RUBIN 2 4.5 14:32:36 10° NW 14:38:59 57° NE 14:44:41 10° ESE
Cosmos 2237 Rocket 3.1 14:34:41 10° SSE 14:39:26 29° ESE 14:44:12 10° NE
NOAA 12 4.2 14:34:19 10° SE 14:39:29 55° ENE 14:44:42 10° N
USA 267 3.4 14:33:36 10° E 14:39:57 57° NNE 14:46:18 10° NW
Cosmos 1939 Rocket 4.1 14:39:46 10° ESE 14:42:35 20° ENE 14:45:26 10° NNE
ERS-2 3.6 14:42:11 10° NE 14:44:50 19° E 14:47:27 10° SE
Abrixas rocket 2.5 14:43:21 10° W 14:46:03 50° SSW 14:48:45 10° ESE
NOSS 2-1 (E) 4.3 14:41:38 10° NW 14:46:40 81° NE 14:53:48 10° SE
Cosmos 2322 4.0 14:41:35 10° SW 14:47:14 71° WNW 14:52:57 10° NNE
Cosmos 1869 3.6 14:45:01 10° SSW 14:49:02 72° W 14:53:09 10° N
Cosmos 540 Rocket 3.6 14:44:43 10° SSW 14:49:51 79° WNW 14:55:01 10° NNE
Cosmos 2369 Rocket 3.9 14:47:31 10° N 14:50:35 14° NNE 14:53:01 11° ENE
ISS -2.2 14:48:04 10° SSW 14:50:48 23° SE 14:53:08 12° E
YAOGAN 1 4.2 14:49:47 10° E 14:52:05 14° ENE 14:54:22 10° NNE
Meteor 2-2 Rocket 4.3 14:47:03 10° S 14:52:59 73° E 14:58:52 10° NNE
CZ-4B R/B 2.4 14:53:47 13° NE 14:55:49 23° E 14:58:20 10° SSE
Okean-O 4.0 14:53:45 10° ESE 14:56:49 19° ENE 14:59:53 10° NNE
AQUARIUS 4.1 14:52:30 10° SSE 14:56:57 68° ENE 15:01:27 10° N
Cosmos 1980 4.2 14:51:52 10° S 14:57:10 42° ESE 15:02:29 10° NE
CORIOLIS 4.1 14:52:15 10° SSE 14:57:37 70° ENE 15:03:02 10° N
Cosmos 841 Rocket 3.8 14:52:40 10° SSW 14:57:53 71° WNW 15:03:07 10° NNE
Envisat 3.5 14:54:45 10° S 14:59:48 65° WSW 15:04:53 10° NNW
COSMO-SKYMED 1 3.8 14:56:33 10° NE 14:59:54 22° E 15:03:16 10° SE
Cosmos 1743 Rocket 3.6 14:56:23 10° N 15:00:53 88° WSW 15:05:20 10° S
Nadezhda 1 Rocket 4.0 14:56:52 10° S 15:03:06 68° E 15:09:28 10° NNE
H-2A R/B 3.4 15:02:20 10° E 15:05:53 19° ENE 15:09:27 10° NNE
H-2A R/B 3.5 15:02:02 10° S 15:06:19 53° W 15:10:28 10° NNW
Cosmos 2292 4.4 15:04:51 10° S 15:07:50 55° E 15:11:21 10° NNE
Okean O Rocket 1.6 15:05:26 10° SSE 15:09:46 88° WSW 15:14:11 10° NNW
BREEZE-M DEB (TANK) 1.9 15:08:24 10° WSW 15:10:33 53° SSE 15:11:32 26° E
Cosmos 2154 Rocket 4.0 15:06:15 10° N 15:12:36 87° ENE 15:18:58 10° S
Sich 1 3.2 15:08:40 10° N 15:12:58 48° ENE 15:17:12 10° SSE
Cosmos 1842 Rocket 4.2 15:10:15 10° SSW 15:14:29 56° WNW 15:18:47 10° N
Cosmos 2297 4.3 15:09:39 10° NNW 15:14:53 36° NE 15:20:06 10° ESE
Cosmos 1933 4.4 15:15:32 10° SE 15:18:49 25° E 15:19:41 23° ENE
Cosmos 405 Rocket 3.3 15:15:20 10° NNW 15:19:09 61° W 15:23:03 10° S
Cosmos 2341 Rocket 4.0 15:13:41 10° N 15:19:52 57° ENE 15:26:04 10° SSE
USA 281 3.4 15:14:25 10° SE 15:20:42 51° NE 15:27:02 10° NNW
Cosmos 1805 Rocket 3.5 15:16:43 10° N 15:21:12 77° E 15:25:39 10° SSE
Cosmos 1943 Rocket 3.1 15:19:41 10° NNW 15:24:23 27° NE 15:26:21 22° ENE
Cosmos 2322 Rocket 4.4 15:22:09 10° WNW 15:25:53 18° NW 15:29:38 10° N
YAOGAN 6 4.5 15:22:32 10° SSW 15:25:54 34° W 15:29:15 10° NNW
SL-16 R/B 3.2 15:21:59 10° SSE 15:26:30 25° ESE 15:27:59 23° E
Cosmos 1666 Rocket 3.8 15:22:59 10° N 15:27:12 44° ENE 15:31:25 10° SSE
SMAP 3.8 15:23:02 10° S 15:27:36 55° W 15:32:12 10° NNW
Helios 1A Rocket 3.5 15:27:03 10° SE 15:30:37 33° ENE 15:34:14 10° N
Cosmos 1151 Rocket 3.8 15:29:01 10° SSE 15:32:43 29° E 15:32:56 29° E
ARGOS 4.2 15:34:14 24° ENE 15:34:21 24° ENE 15:38:36 10° N
NOSS 0 Rocket 3.9 15:28:35 10° SSW 15:34:50 89° SE 15:40:40 12° NNE
Cosmos 1328 Rocket 4.5 15:31:37 10° SSE 15:34:40 26° ESE 15:34:40 26° ESE
Cosmos 2285 Rocket 4.2 15:29:07 10° NNW 15:35:18 47° ENE 15:41:24 10° SE
MOS 1 Rocket 4.4 15:34:55 25° ENE 15:36:23 28° E 15:41:02 10° SSE
Feng Yun 1-1 Rocket 4.2 15:30:56 10° SSE 15:36:46 81° ENE 15:42:28 10° NNW
CZ-2C R/B 3.2 15:35:09 10° SE 15:40:01 44° ENE 15:44:41 10° N
Cosmos 2333 Rocket 3.4 15:34:56 10° WSW 15:40:13 39° NW 15:45:32 10° NNE
Cosmos 836 Rocket 4.5 15:35:23 10° S 15:40:37 68° ESE 15:44:43 17° NNE
Meteor 1-20 Rocket 4.3 15:38:07 10° N 15:43:56 60° ENE 15:49:42 10° SSE
Cosmos 1606 2.6 15:41:03 10° S 15:44:57 81° E 15:48:01 16° NNE
Cosmos 1867 4.0 15:40:13 10° S 15:45:15 40° ESE 15:46:51 32° E
COSMOS 2428 3.7 15:39:56 10° SW 15:45:23 44° NW 15:50:53 10° NNE
Cosmos 389 Rocket 2.2 15:42:47 10° S 15:46:12 75° E 15:47:24 38° NNE
H-2A R/B 3.5 15:43:25 10° N 15:47:12 35° WNW 15:51:00 10° SW
EO 1 Delta rocket 4.4 15:42:34 10° NNE 15:47:34 50° E 15:53:41 10° S
SL-8 Rocket 3.9 15:41:53 10° N 15:48:06 70° ENE 15:54:20 10° SSE
SKYMED 2 3.5 15:45:10 19° NNE 15:48:16 63° E 15:52:34 10° S
CREW DRAGON DEMO-1 DEB 2.7 15:45:53 10° WNW 15:48:47 69° N 15:48:47 69° N
USA 215 3.2 15:44:55 25° ENE 15:49:04 80° SE 15:55:37 10° SW
Cosmos 1818 4.4 15:46:12 10° NW 15:51:30 51° WSW 15:56:44 10° SSE
Cosmos 2181 Rocket 4.0 15:46:44 10° S 15:53:03 63° E 15:59:22 10° NNE
Cosmos 2278 Rocket 3.5 15:47:52 10° NW 15:53:12 42° WSW 15:58:29 10° S
Cosmos 1959 Rocket 4.4 15:51:23 10° N 15:57:45 68° E 16:04:03 10° SSE
Cosmos 1633 Rocket 2.9 15:54:33 10° N 15:58:59 76° E 16:03:20 10° SSE
Lacrosse 5 rocket 3.5 15:57:10 10° SSE 15:57:35 12° SSE 15:57:35 12° SSE
Meteor 1-25 Rocket 4.1 15:54:25 10° N 16:00:03 76° ENE 16:05:42 10° SSE
CZ-4 R/B 1.2 16:01:50 54° SE 16:02:31 67° ENE 16:06:29 10° N
SAR-Lupe-4 3.5 16:06:39 64° N 16:07:08 82° WNW 16:10:43 10° SSW
IRS-1C Rocket 4.4 16:05:29 10° S 16:10:44 69° WSW 16:16:02 10° NNW
CZ-2D R/B 3.5 16:07:07 10° S 16:10:53 68° WSW 16:14:44 10° NNW
CSL-04 Debris 4.2 16:10:10 34° SE 16:12:23 57° ENE 16:17:46 10° N
SL-08 R/B 4.4 16:07:23 10° N 16:13:29 56° ENE 16:19:28 10° SSE
Cosmos 44 3.4 16:10:33 10° NW 16:15:49 73° NE 16:16:56 55° ESE
Cosmos 2219 Rocket 4.0 16:11:12 10° W 16:15:52 26° NW 16:20:34 10° NNE
Cosmos 1939 Rocket 4.1 16:13:37 10° S 16:17:15 41° W 16:20:58 10° NNW
ERS-2 3.5 16:16:17 18° N 16:18:31 37° WNW 16:21:54 10° SW
USA 267 3.5 16:18:26 21° SE 16:22:56 67° SW 16:29:26 10° WNW
Cosmos 2237 Rocket 2.8 16:17:43 10° SW 16:23:11 53° NW 16:26:47 22° NNE
ISS -2.2 16:23:58 10° WSW 16:26:06 36° WSW 16:26:06 36° WSW
YAOGAN 1 2.6 16:26:41 55° S 16:27:35 79° WSW 16:31:57 10° NNW
CZ-4B R/B 3.7 16:26:56 17° NW 16:27:59 20° WNW 16:30:21 10° WSW
Cosmos 2218 Rocket 4.2 16:25:31 10° NNW 16:31:39 70° W 16:37:44 10° S
Okean-O 3.1 16:28:30 10° S 16:32:52 59° WSW 16:37:17 10° NNW
Cosmos 2369 Rocket 2.7 16:30:27 10° NNW 16:34:50 44° NNE 16:34:50 44° NNE
COSMO-SKYMED 1 3.6 16:33:46 21° N 16:36:16 44° WNW 16:40:23 10° SW
CSL-04 Rocket 3.5 16:37:06 75° SE 16:37:32 83° ENE 16:42:53 10° NNW
Cosmos 2366 rocket 4.5 16:38:05 10° NNW 16:44:12 59° W 16:50:12 10° S
H-2A R/B 2.1 16:42:58 43° S 16:44:45 79° WSW 16:50:00 10° NNW
Meteor 1-14 Rocket 4.4 16:46:46 10° NNW 16:52:41 77° W 16:55:20 35° S
USA 281 4.4 16:59:16 10° S 17:05:20 39° WSW 17:11:27 10° NW
Cosmos 1943 Rocket 2.6 17:03:05 10° NNW 17:07:55 59° WNW 17:07:55 59° WNW
SL-16 R/B 2.6 17:04:38 10° SW 17:09:55 59° WNW 17:09:55 59° WNW
ARGOS 4.1 17:15:45 44° NW 17:15:45 44° NW 17:19:36 10° NNW
MOS 1 Rocket 4.4 17:14:13 47° NW 17:14:47 49° WNW 17:20:00 10° SW
USA 215 3.8 17:32:16 51° NNW 17:32:16 51° NNW 17:38:12 10° W
CZ-4 R/B 4.5 17:37:52 12° W 17:38:02 12° W 17:39:38 10° WNW
